RH
14 14 18 16 11 9 8 6 3 3 3 4 4 6 10 12 14 16 18 22 27 25 25 31 36 35 34 35 32 34 32 29 28 35 33 32 44 65 86 89 96 98 98 92 81
16 14 16 18 12 9 8 6 3 2 2 3 4 4 7 10 12 14 16 17 26 29 27 24 29 35 33 32 33 29 33 37 32 27 36 37 29 37 58 64 59 72 74 75 75
16 14 14 17 14 10 9 6 3 2 2 3 3 4 6 10 13 12 14 16 20 30 31 30 25 27 33 31 31 29 29 35 37 29 28 27 29 26 27 33 37 39 38 44 55
16 14 13 16 18 12 10 7 4 2 2 3 3 4 6 8 12 12 13 15 17 24 32 33 30 25 26 32 30 30 29 30 34 36 35 29 25 25 25 23 24 26 24 25 31
17 18 16 13 16 15 11 10 6 3 3 3 3 4 5 6 7 11 14 15 16 18 28 33 35 31 28 28 30 30 31 30 30 34 36 35 26 25 23 23 21 22 22 21 22
19 21 18 17 13 15 13 12 9 6 4 4 4 4 5 6 6 8 12 15 16 18 21 30 35 35 35 29 26 28 31 32 29 30 33 34 32 26 23 22 23 21 21 21 21
23 21 21 18 15 13 16 13 11 9 6 4 7 6 6 6 6 6 10 12 16 17 18 26 31 34 36 38 28 26 28 31 30 28 28 31 31 35 25 23 24 26 26 24 21
26 27 23 21 18 14 14 17 12 10 9 7 4 5 6 5 6 5 6 8 13 16 18 19 28 31 33 39 40 34 25 27 29 28 27 28 32 36 31 27 25 27 29 28 25
31 34 27 25 20 17 14 16 18 14 12 10 6 5 4 4 5 5 5 6 7 14 16 17 24 28 30 36 41 40 34 25 24 27 28 27 33 31 31 33 30 31 32 30 27
38 37 35 28 25 22 16 14 18 17 16 14 11 6 5 5 5 6 4 5 6 9 15 16 18 26 29 31 33 37 38 35 32 26 28 27 30 29 29 31 34 37 36 34 32
37 37 38 33 29 27 23 16 16 18 18 14 11 10 7 5 5 4 4 5 7 8 14 16 16 22 33 32 32 37 45 48 46 37 28 28 28 28 26 28 30 30 30 32 32
38 45 41 40 34 29 28 22 20 16 21 22 16 12 7 5 5 4 4 4 6 8 12 16 17 20 29 35 32 33 37 40 41 37 31 31 35 29 27 30 29 29 29 28 28
43 49 51 43 36 38 33 32 25 23 17 24 22 19 14 6 6 5 4 4 6 8 10 15 22 23 26 31 33 33 34 36 38 39 36 35 38 33 34 38 35 32 31 29 26
52 60 53 56 43 39 38 39 33 25 22 17 24 20 17 12 7 6 5 5 6 8 9 13 19 26 31 32 32 35 38 37 38 38 39 38 40 37 38 46 49 42 33 32 33
58 52 60 60 60 44 46 45 45 31 26 20 18 24 21 18 10 7 7 6 7 8 10 14 17 23 27 28 30 32 36 38 39 38 38 36 38 50 49 50 49 47 50 55 60
70 59 58 90 78 55 52 59 52 46 34 29 22 18 25 20 17 10 8 9 9 10 11 15 19 25 26 30 28 31 29 32 35 36 34 39 38 54 56 59 52 55 61 62 62
66 84 66 63 87 71 56 60 66 48 41 40 30 24 20 25 19 16 10 11 13 14 15 16 19 24 28 31 31 31 30 29 30 31 36 42 36 52 64 69 55 55 57 63 67
73 72 72 71 73 75 62 51 59 61 46 45 42 29 25 20 23 19 15 11 14 16 19 20 21 23 25 27 33 32 31 32 34 35 37 38 32 43 65 74 72 72 76 70 74
98 72 75 59 70 58 52 45 50 70 61 50 48 37 31 27 20 26 20 15 17 18 20 24 25 24 24 26 28 32 34 35 35 35 34 33 33 44 55 68 83 89 84 83 74
89 99 74 80 62 40 50 35 41 53 66 69 61 47 41 44 31 21 28 22 20 21 25 27 26 26 26 26 27 30 33 34 32 35 33 34 35 36 55 80 95 83 77 79 84
61 88 93 89 83 75 47 41 37 44 50 64 68 60 53 45 53 38 23 26 29 25 25 26 27 29 28 28 30 29 33 36 38 35 34 36 44 77 93 96 83 63 56 64 74
68 72 72 69 99 87 80 57 53 41 47 49 62 79 55 68 53 57 52 33 19 31 32 32 33 26 28 28 31 37 46 46 42 38 37 42 65 88 70 57 55 54 58 63 58
71 65 80 88 82 98 82 70 84 91 45 48 48 61 88 56 59 62 61 50 44 32 20 27 34 35 37 40 42 41 37 34 32 31 39 40 56 67 70 66 62 57 52 50 57
73 59 71 81 93 85 88 81 78 79 96 52 55 46 54 72 74 76 72 73 66 57 51 35 26 26 33 37 39 41 39 38 39 43 53 47 61 65 67 66 54 51 50 51 52
65 78 84 98 87 100 96 91 84 68 92 98 77 64 56 48 66 90 89 79 78 68 70 66 61 45 37 35 32 29 28 29 32 32 30 55 33 48 39 47 56 48 45 47 48
100 100 100 87 73 85 99 100 100 91 86 83 91 76 72 64 63 64 83 94 99 86 75 72 77 64 56 69 62 52 49 47 47 47 45 44 54 50 52 52 57 62 64 69 78
57 100 100 98 100 96 96 97 100 100 100 99 99 84 79 74 79 66 70 86 84 90 98 89 68 61 64 47 42 48 88 66 71 71 65 78 81 81 79 80 85 86 88 96 99
Wind_Speed
71 74 76 67 53 43 38 35 36 40 48 60 72 84 97 105 108 107 103 103 99 99 95 91 87 81 75 68 65 59 54 52 52 50 48 45 46 47 45 41 41 44 46 46 45
75 75 79 76 61 49 46 37 29 31 38 48 59 73 86 98 107 109 109 105 103 99 99 95 92 87 81 74 69 63 57 57 56 53 50 48 46 46 45 43 42 42 43 44 44
73 79 78 82 72 55 51 42 31 24 29 39 48 61 72 89 99 107 110 109 106 102 99 98 96 92 86 80 73 68 63 64 60 56 52 50 48 47 44 42 42 41 41 43 44
71 79 81 84 81 65 55 48 35 22 20 29 41 52 65 77 95 101 106 110 108 108 102 99 98 95 90 85 78 74 71 70 66 62 57 52 51 49 47 44 42 42 41 40 40
69 75 81 85 87 74 59 55 41 26 16 21 32 44 55 67 79 98 105 110 110 109 108 102 98 97 94 90 85 80 77 74 72 67 61 56 53 52 49 47 44 43 42 42 42
68 72 78 83 89 87 67 58 51 35 20 14 24 34 46 56 67 81 100 109 113 111 110 107 100 97 98 94 91 85 82 80 76 71 65 61 57 55 52 48 46 45 45 45 45
63 70 76 80 84 89 84 63 54 46 31 14 10 23 36 47 58 71 86 100 112 113 112 111 107 101 96 95 93 89 87 85 80 75 70 64 60 62 55 55 51 49 49 49 49
63 68 72 76 81 85 88 80 61 50 42 27 11 14 25 38 49 60 73 90 102 112 113 112 111 105 98 94 93 92 89 87 82 78 73 70 64 65 60 59 57 56 55 55 54
60 63 69 74 79 83 86 86 78 62 51 41 23 10 18 31 44 52 61 73 92 105 111 112 111 107 100 95 92 90 87 84 84 80 77 72 70 68 65 63 61 61 61 60 58
57 60 64 70 73 79 83 85 86 73 62 48 34 19 10 17 29 46 53 61 78 97 106 111 111 108 102 97 90 83 82 83 83 82 80 76 74 73 69 65 64 65 65 64 63
54 58 61 65 68 73 78 82 85 87 75 59 46 32 18 8 21 33 44 51 66 85 98 106 107 105 101 96 92 87 85 82 81 82 82 79 78 76 72 68 68 67 66 66 66
51 55 57 59 61 67 71 76 80 83 85 73 58 45 31 11 9 21 33 43 55 74 90 98 105 104 104 100 96 92 88 84 81 79 79 77 76 78 74 71 70 68 67 69 70
48 51 52 54 55 58 64 70 75 77 79 78 67 53 42 22 10 9 22 34 48 64 81 92 102 103 103 102 98 94 90 85 82 80 77 75 72 75 74 72 71 70 70 69 70
44 46 49 50 51 52 56 62 69 72 74 75 72 63 49 40 20 5 13 28 41 57 72 87 96 105 104 101 99 96 90 88 85 82 78 75 70 71 71 72 72 72 72 70 70
41 45 47 46 47 48 52 57 62 67 69 69 73 71 64 47 30 13 2 20 35 49 61 76 86 97 102 100 98 95 92 89 86 84 80 76 72 72 74 75 74 73 71 70 70
37 42 45 43 44 44 46 52 55 58 62 67 69 71 68 57 42 22 5 13 27 38 49 65 76 88 96 98 94 93 91 90 87 85 81 75 72 70 75 77 75 72 70 71 71
38 36 41 41 43 42 42 44 49 52 54 57 63 65 68 64 50 37 14 9 20 27 35 48 63 74 88 93 93 89 88 87 85 81 75 75 73 71 74 77 75 73 72 71 72
36 39 40 35 38 39 38 39 40 45 49 50 53 58 59 64 59 44 27 10 16 19 26 35 48 60 72 83 89 89 86 83 81 79 76 74 69 70 73 75 75 74 74 74 74
43 39 40 35 34 36 33 38 39 38 40 43 45 49 53 55 58 54 39 21 14 12 12 22 33 45 57 68 77 82 83 82 79 76 72 66 64 65 69 73 74 74 74 74 74
42 41 41 36 34 33 31 33 34 35 35 35 36 40 44 47 49 50 47 33 18 13 11 12 15 25 39 51 60 66 71 71 69 62 58 52 52 53 61 65 67 68 69 70 71
43 40 40 41 34 32 32 32 33 32 33 33 31 31 34 39 40 41 41 39 30 15 8 7 9 16 26 37 48 52 54 55 54 49 47 48 49 53 58 61 62 63 64 64 62
46 45 40 44 41 39 34 33 30 32 30 31 30 29 25 28 32 32 32 31 30 25 19 14 12 14 18 27 33 37 39 42 40 42 45 46 45 53 56 58 58 57 55 51 49
50 46 44 43 44 42 36 33 32 37 31 26 26 26 25 21 22 27 24 24 23 21 20 19 14 9 11 17 23 26 28 33 36 39 45 46 47 53 51 49 47 45 44 42 42
54 49 50 48 45 45 44 39 38 41 36 30 25 25 23 23 19 20 20 17 12 13 11 9 9 9 7 8 10 15 18 25 27 30 35 34 40 43 42 40 37 36 37 38 39
60 55 53 52 50 48 46 46 47 42 40 37 33 28 25 22 23 20 19 18 18 14 8 5 4 4 5 7 9 12 15 17 21 24 22 37 29 43 35 37 40 40 41 41 44
74 64 61 59 57 52 51 52 52 52 48 47 41 38 34 30 28 25 24 23 21 18 20 19 17 15 15 17 18 20 23 25 27 29 31 33 39 43 43 43 45 46 48 49 52
81 74 72 62 65 63 61 55 57 57 55 53 52 46 40 36 34 33 32 30 28 27 25 27 29 27 28 25 24 26 37 32 35 38 38 42 46 49 50 51 52 54 56 58 61
Wind_Direction
4 5 4 359 351 340 330 311 287 264 247 238 234 229 227 226 225 225 224 222 222 224 225 226 228 227 225 222 221 219 221 226 226 227 230 230 231 234 236 241 245 248 248 251 253
7 6 6 3 357 350 345 334 308 277 254 239 234 229 227 224 224 223 224 223 220 221 222 224 226 227 225 221 222 218 222 228 228 227 230 233 232 234 234 237 243 248 250 252 256
7 8 7 7 3 358 353 348 334 296 261 242 234 229 226 223 223 223 221 221 221 219 220 221 224 225 225 223 221 221 219 228 230 229 230 231 233 235 235 237 240 245 250 253 254
9 9 10 11 8 3 1 358 349 322 275 245 235 227 224 223 222 221 222 220 219 219 218 220 221 224 224 224 222 221 223 227 231 231 231 232 233 235 236 239 242 245 249 253 256
6 9 9 12 11 10 5 5 1 348 303 251 237 227 223 222 222 221 219 220 219 219 218 217 219 221 223 223 223 221 223 226 229 230 231 232 234 236 238 240 242 245 249 253 257
5 7 9 11 12 13 13 10 10 5 346 284 237 227 225 222 222 220 218 218 218 218 217 218 217 219 220 222 222 222 223 226 226 229 232 232 236 238 239 241 243 246 249 253 257
5 6 7 9 12 14 15 16 14 13 9 342 258 234 229 225 221 220 218 217 217 218 216 216 217 216 218 220 222 222 223 225 226 228 232 234 236 239 240 242 244 247 251 254 258
3 3 6 8 10 12 16 16 18 17 18 10 322 252 230 227 224 221 219 218 216 217 217 216 217 215 216 218 220 222 223 225 226 229 230 233 236 239 241 243 246 249 253 256 259
1 4 4 7 8 11 14 18 18 19 18 15 6 307 246 227 221 223 221 218 216 215 216 215 216 216 216 217 218 220 223 226 228 229 231 232 237 239 241 244 247 250 253 257 260
1 2 4 6 8 10 13 17 20 21 21 17 13 359 306 249 227 223 221 217 215 214 214 214 215 216 215 216 219 222 224 226 228 230 231 232 237 240 241 243 247 251 254 258 261
357 0 3 7 8 10 12 15 19 20 21 18 18 20 355 296 236 228 224 216 212 211 212 213 215 214 215 216 217 218 220 224 227 230 231 232 236 241 242 245 248 251 255 259 262
355 359 1 5 8 9 10 13 16 20 22 21 17 15 13 352 263 242 224 217 209 208 210 212 213 213 214 215 216 218 220 223 226 228 231 233 236 240 242 247 250 253 257 259 261
349 355 359 1 7 9 11 11 14 17 21 21 23 18 14 7 1 258 222 210 206 205 207 210 212 212 213 214 216 218 221 223 227 230 233 234 237 242 244 248 251 253 255 259 263
344 348 354 357 3 7 10 10 11 14 20 20 22 24 20 19 12 7 218 205 202 203 206 208 209 212 213 214 216 218 220 224 227 230 233 234 237 244 248 249 251 254 257 260 264
338 344 347 353 357 3 6 9 12 11 16 19 23 25 25 20 18 16 185 199 196 200 204 207 209 212 212 215 217 218 220 223 226 230 233 237 239 243 247 250 252 255 258 261 264
330 337 341 344 351 357 3 5 9 12 13 16 20 25 26 24 23 20 45 176 188 194 200 205 208 211 213 215 217 219 221 223 226 230 233 238 242 244 248 250 253 256 258 261 264
326 327 335 340 344 351 356 4 5 8 12 15 16 23 27 27 27 28 36 149 174 183 194 204 207 210 214 215 218 220 222 224 227 231 236 240 244 245 247 251 255 257 259 262 264
316 324 328 333 338 343 353 360 5 4 8 13 15 17 27 28 30 32 38 99 157 172 184 198 208 210 214 216 218 221 223 226 229 232 236 240 245 248 249 252 255 258 260 262 264
311 311 320 322 328 334 344 350 357 1 5 7 13 14 18 28 31 33 37 62 114 130 161 194 201 208 211 215 217 220 224 227 229 233 237 242 246 249 252 254 255 257 259 261 263
309 304 308 313 316 326 332 337 349 356 359 3 7 10 15 19 26 35 39 45 76 112 123 142 173 204 209 211 214 219 223 227 230 232 236 240 246 249 252 255 257 258 259 260 262
304 306 300 311 305 317 320 326 335 347 353 357 358 6 9 14 20 23 36 46 49 60 109 146 175 194 200 208 211 212 217 223 224 228 235 242 246 250 252 253 256 257 259 261 264
298 297 303 308 302 304 308 314 320 330 341 347 351 352 1 4 11 15 21 33 42 60 67 80 110 154 184 198 206 208 213 218 222 228 234 237 241 245 248 252 255 259 263 266 267
294 289 294 294 299 297 301 301 308 321 319 332 340 342 345 347 357 1 6 12 20 33 42 61 80 106 130 158 176 193 205 214 221 229 235 242 245 251 253 256 259 263 267 270 272
281 285 287 287 290 291 291 291 298 306 308 309 318 319 327 333 328 343 342 345 359 6 15 40 57 83 128 168 196 215 225 231 233 235 240 244 245 252 255 259 263 265 266 267 268
279 282 280 279 283 281 283 284 286 294 298 301 302 306 306 312 317 307 317 326 316 312 290 273 257 234 229 217 222 225 231 235 235 241 241 245 252 256 261 263 263 266 268 268 268
276 275 277 275 276 278 275 275 279 285 289 290 291 294 293 294 297 299 294 298 292 296 285 280 260 257 256 254 255 262 260 256 256 255 252 255 251 258 259 260 262 266 268 270 271
272 270 270 270 272 270 272 274 273 274 280 284 284 284 280 286 286 287 290 289 288 283 278 274 270 268 271 271 275 270 254 258 257 259 260 257 257 260 263 264 266 269 270 272 273